Location: BGSU Observatory
(41.3799°N, 83.6397°W)
Time: 06:34:44
(UTC-04:00)

Amateur Radio Satellites - All Passes

Search period start: 18 April 2014 06:04
Search period end: 19 April 2014 06:04
Location: BGSU Observatory, 41.3799°N, 83.6397°W

Satellite Date Start Highest point End Downlink Frequencies (MHz)
Time Altitude Azimuth
JAS-1B 18 Apr 06:06:29 06:12:07 63° 288° (WNW) 06:17:51 435.800 - 435.900 CW/SSB
Gurwin Techsat 1B 18 Apr 06:10:52 06:14:23 18° 298° (WNW) 06:17:53 435.225 FM
STRAND 1 18 Apr 06:27:03 06:31:13 26° 65° (ENE) 06:35:24 ?
RS-15 18 Apr 06:45:08 06:54:33 32° 105° (ESE) 07:03:41 29.354 - 29.394 USB, Beacon 29.352 USB
AO-7 18 Apr 06:51:40 06:59:55 70° 292° (WNW) 07:08:10 29.400 - 29.500 MHz
Uosat F 18 Apr 07:18:52 07:21:33 15° 300° (WNW) 07:24:14 435.120 FM
JAS-2 18 Apr 07:39:21 07:43:14 20° 94° (E) 07:47:20 435.800 - 435.900 CW/SSB, 435.910 FM
KITSAT 1 18 Apr 07:43:53 07:47:42 14° 342° (NNW) 07:51:31 435.175 FM
Hamsat 18 Apr 07:49:05 07:53:27 75° 102° (ESE) 07:57:48 145.90 MHz
STRAND 1 18 Apr 08:05:27 08:10:13 39° 262° (W) 08:15:00 ?
MaSat-1 18 Apr 08:05:41 08:08:35 61° 64° (ENE) 08:12:00 437.345 MHz
SO-67 18 Apr 08:39:18 08:42:44 50° 99° (E) 08:46:08 435.3500 MHz FM
AO-7 18 Apr 08:46:33 08:51:15 17° 313° (NW) 08:55:58 29.400 - 29.500 MHz
RS-15 18 Apr 08:54:41 09:05:59 73° 306° (NW) 09:16:59 29.354 - 29.394 USB, Beacon 29.352 USB
AO-40 18 Apr 09:02:28 10:26:24 21° 225° (SW) 13:09:51 Beacon 2401.320
HO-68 18 Apr 09:10:21 09:13:01 12° 87° (E) 09:15:40 435.675 MHz FM
PCSat 18 Apr 09:13:37 09:16:41 15° 40° (NE) 09:19:44 145.825 MHz
JAS-2 18 Apr 09:23:25 09:28:36 53° 288° (WNW) 09:34:14 435.800 - 435.900 CW/SSB, 435.910 FM
Hamsat 18 Apr 09:27:37 09:28:49 11° 298° (WNW) 09:30:01 145.90 MHz
KITSAT 1 18 Apr 09:44:27 09:47:32 12° 13° (NNE) 09:50:37 435.175 FM
Sapphire 18 Apr 10:10:47 10:15:42 33° 51° (NE) 10:20:34 437.095 MHz 1200 baud AX-25 AFSK
SO-67 18 Apr 10:15:15 10:15:26 10° 295° (WNW) 10:15:37 435.3500 MHz FM
PANSAT 18 Apr 10:43:07 10:43:36 10° 171° (S) 10:44:05 not established
HO-68 18 Apr 10:54:35 11:01:48 77° 105° (ESE) 11:08:58 435.675 MHz FM
PCSat 18 Apr 10:55:33 11:01:01 79° 60° (ENE) 11:06:25 145.825 MHz
Oscar 11 18 Apr 10:56:03 11:00:06 36° 98° (E) 11:04:07 145.825 FM, Beacon 2401.500 USB
RS-15 18 Apr 11:11:39 11:20:38 27° 334° (NNW) 11:29:33 29.354 - 29.394 USB, Beacon 29.352 USB
KITSAT 1 18 Apr 11:39:06 11:46:08 31° 42° (NE) 11:53:07 435.175 FM
Sapphire 18 Apr 11:54:12 11:59:08 37° 249° (WSW) 12:04:02 437.095 MHz 1200 baud AX-25 AFSK
FUNcube-1 18 Apr 12:18:01 12:22:17 87° 284° (WNW) 12:26:37 145.950 - 145.970 MHz USB
Saudisat 1A 18 Apr 12:20:23 12:24:50 77° 121° (ESE) 12:29:18 436.775 MHz
PANSAT 18 Apr 12:21:35 12:23:01 12° 184° (S) 12:24:27 not established
Oscar 11 18 Apr 12:32:49 12:36:03 21° 294° (WNW) 12:39:17 145.825 FM, Beacon 2401.500 USB
PCSat 18 Apr 12:41:01 12:43:42 14° 257° (WSW) 12:46:23 145.825 MHz
HO-68 18 Apr 12:43:31 12:48:45 23° 303° (WNW) 12:54:00 435.675 MHz FM
Oscar 19 18 Apr 13:07:07 13:10:31 18° 62° (ENE) 13:13:55 437.125 CW, 437.150 USB
Oscar 16 18 Apr 13:14:32 13:18:27 23° 64° (ENE) 13:22:23 437.025 USB, Beacon 2401.1428
AO-Echo 18 Apr 13:22:08 13:22:46 10° 58° (ENE) 13:23:24 ?
RS-15 18 Apr 13:30:22 13:38:12 21° 10° (N) 13:46:01 29.354 - 29.394 USB, Beacon 29.352 USB
KITSAT 1 18 Apr 13:34:11 13:42:15 72° 244° (WSW) 13:50:15 435.175 FM
Uribyol 2 18 Apr 13:47:21 13:51:26 24° 65° (ENE) 13:55:30 436.500 FM
Saudisat 1A 18 Apr 14:02:10 14:04:58 16° 320° (NW) 14:07:47 436.775 MHz
Gurwin Techsat 1B 18 Apr 14:14:28 14:16:56 13° 59° (ENE) 14:19:24 435.225 FM
AO-27 18 Apr 14:25:47 14:30:48 52° 71° (ENE) 14:35:49 436.795 MHz FM
ITAMSAT 1 18 Apr 14:36:41 14:41:48 64° 73° (ENE) 14:46:56 435.822 SSB
Oscar 19 18 Apr 14:44:19 14:49:22 59° 259° (W) 14:54:29 437.125 CW, 437.150 USB
Oscar 16 18 Apr 14:52:35 14:57:29 46° 261° (W) 15:02:27 437.025 USB, Beacon 2401.1428
AO-Echo 18 Apr 14:55:26 15:00:41 76° 75° (ENE) 15:05:50 ?
TMSAT-1 18 Apr 15:01:18 15:05:33 25° 65° (ENE) 15:09:47 436.925 FM
JAS-1B 18 Apr 15:02:28 15:07:54 21° 61° (ENE) 15:12:47 435.800 - 435.900 CW/SSB
Uosat F 18 Apr 15:16:26 15:18:36 13° 59° (ENE) 15:20:47 435.120 FM
Uribyol 2 18 Apr 15:25:45 15:30:39 43° 261° (W) 15:35:33 436.500 FM
KITSAT 1 18 Apr 15:32:58 15:36:12 13° 262° (W) 15:39:25 435.175 FM
RS-15 18 Apr 15:44:01 15:54:24 45° 43° (NE) 16:04:55 29.354 - 29.394 USB, Beacon 29.352 USB
Gurwin Techsat 1B 18 Apr 15:50:50 15:56:09 86° 256° (WSW) 16:01:30 435.225 FM
AO-7 18 Apr 15:58:59 16:06:20 37° 59° (ENE) 16:13:41 29.400 - 29.500 MHz
OPAL 18 Apr 16:00:28 16:05:27 44° 101° (E) 16:10:25 ?
AO-27 18 Apr 16:06:56 16:10:36 19° 267° (W) 16:14:16 436.795 MHz FM
ITAMSAT 1 18 Apr 16:18:45 16:21:44 15° 269° (W) 16:24:44 435.822 SSB
SO-50 18 Apr 16:23:26 16:27:42 45° 117° (ESE) 16:32:01 436.795 FM
ISS 18 Apr 16:35:38 16:38:56 61° 141° (SE) 16:42:15 145.800 FM
AO-Echo 18 Apr 16:37:36 16:39:57 13° 270° (W) 16:42:17 ?
TMSAT-1 18 Apr 16:40:13 16:45:13 43° 262° (W) 16:50:15 436.925 FM
JAS-1B 18 Apr 16:49:41 16:58:02 79° 256° (WSW) 17:04:58 435.800 - 435.900 CW/SSB
Uosat F 18 Apr 16:51:40 16:56:42 83° 256° (WSW) 17:01:45 435.120 FM
OPAL 18 Apr 17:39:54 17:44:04 25° 297° (WNW) 17:48:14 ?
AO-7 18 Apr 17:50:50 17:58:50 52° 258° (WSW) 18:06:54 29.400 - 29.500 MHz
RS-15 18 Apr 17:56:30 18:07:07 59° 246° (WSW) 18:18:02 29.354 - 29.394 USB, Beacon 29.352 USB
SO-50 18 Apr 18:04:53 18:08:29 23° 316° (NW) 18:12:06 436.795 FM
ISS 18 Apr 18:13:05 18:15:54 24° 339° (NNW) 18:18:44 145.800 FM
Hamsat 18 Apr 18:42:38 18:46:42 52° 74° (ENE) 18:50:50 145.90 MHz
JAS-1B 18 Apr 18:45:46 18:49:14 13° 270° (W) 18:52:29 435.800 - 435.900 CW/SSB
UOSAT-12 18 Apr 18:51:58 18:56:30 78° 121° (ESE) 19:01:10 437.025 FM, 437.400 FM
Saudisat 1A 18 Apr 19:10:12 19:11:10 11° 34° (NE) 19:12:08 436.775 MHz
SO-67 18 Apr 19:14:01 19:16:28 18° 69° (ENE) 19:18:55 435.3500 MHz FM
JAS-2 18 Apr 19:35:35 19:41:25 63° 73° (ENE) 19:46:43 435.800 - 435.900 CW/SSB, 435.910 FM
HO-68 18 Apr 19:41:31 19:43:35 11° 48° (NE) 19:45:39 435.675 MHz FM
ISS 18 Apr 19:51:38 19:53:33 14° 359° (N) 19:55:28 145.800 FM
STRAND 1 18 Apr 20:15:33 20:20:39 70° 102° (ESE) 20:25:43 ?
Hamsat 18 Apr 20:21:03 20:23:01 13° 270° (W) 20:25:00 145.90 MHz
UOSAT-12 18 Apr 20:34:16 20:37:15 17° 321° (NW) 20:40:16 437.025 FM, 437.400 FM
SO-67 18 Apr 20:46:31 20:49:27 25° 264° (W) 20:52:25 435.3500 MHz FM
Saudisat 1A 18 Apr 20:47:19 20:51:42 61° 54° (NE) 20:56:01 436.775 MHz
HO-68 18 Apr 21:22:51 21:29:47 58° 68° (ENE) 21:36:46 435.675 MHz FM
JAS-2 18 Apr 21:23:14 21:26:51 17° 267° (W) 21:30:18 435.800 - 435.900 CW/SSB, 435.910 FM
ISS 18 Apr 21:28:30 21:31:13 22° 19° (NNE) 21:33:56 145.800 FM
Oscar 11 18 Apr 21:51:28 21:55:12 29° 69° (ENE) 21:58:57 145.825 FM, Beacon 2401.500 USB
STRAND 1 18 Apr 21:56:22 21:59:14 15° 299° (WNW) 22:02:07 ?
MaSat-1 18 Apr 22:09:48 22:12:24 26° 112° (ESE) 22:14:44 437.345 MHz
Saudisat 1A 18 Apr 22:28:29 22:30:47 14° 251° (WSW) 22:33:04 436.775 MHz
ISS 18 Apr 23:04:54 23:08:16 75° 218° (SW) 23:11:37 145.800 FM
HO-68 18 Apr 23:12:00 23:17:50 27° 266° (W) 23:23:44 435.675 MHz FM
FUNcube-1 18 Apr 23:14:43 23:18:55 76° 76° (ENE) 23:23:06 145.950 - 145.970 MHz USB
Oscar 11 18 Apr 23:27:52 23:31:23 24° 265° (W) 23:34:55 145.825 FM, Beacon 2401.500 USB
MaSat-1 18 Apr 23:50:31 23:50:51 10° 304° (NW) 23:51:10 437.345 MHz
Sapphire 19 Apr 00:53:14 00:57:47 28° 109° (ESE) 01:02:21 437.095 MHz 1200 baud AX-25 AFSK
SO-50 19 Apr 00:54:51 00:59:18 44° 51° (NE) 01:03:48 436.795 FM
PCSat 19 Apr 01:37:09 01:42:31 73° 117° (ESE) 01:47:56 145.825 MHz
OPAL 19 Apr 01:41:22 01:42:31 11° 55° (NE) 01:43:39 ?
UOSAT-12 19 Apr 01:43:10 01:45:14 13° 35° (NE) 01:47:17 437.025 FM, 437.400 FM
KITSAT 1 19 Apr 02:11:11 02:15:36 16° 100° (E) 02:20:00 435.175 FM
Oscar 10/S400 19 Apr 02:29:57 02:45:16 22° 130° (SE) 03:16:05 145.825 - 145.975 CW/USB, Beacon 145.810 USB
Sapphire 19 Apr 02:35:53 02:41:00 42° 306° (NW) 02:46:09 437.095 MHz 1200 baud AX-25 AFSK
SO-50 19 Apr 02:36:00 02:39:37 23° 248° (WSW) 02:43:17 436.795 FM
AO-27 19 Apr 02:39:48 02:43:19 18° 92° (E) 02:46:49 436.795 MHz FM
ITAMSAT 1 19 Apr 02:50:17 02:54:18 23° 94° (E) 02:58:18 435.822 SSB
Oscar 19 19 Apr 02:55:50 03:00:53 49° 100° (E) 03:05:54 437.125 CW, 437.150 USB
AO-Echo 19 Apr 03:03:43 03:07:28 23° 94° (E) 03:11:09 ?
Oscar 16 19 Apr 03:03:55 03:09:06 63° 101° (ESE) 03:14:14 437.025 USB, Beacon 2401.1428
OPAL 19 Apr 03:15:30 03:20:31 79° 72° (ENE) 03:25:38 ?
UOSAT-12 19 Apr 03:21:34 03:26:17 68° 55° (NE) 03:30:57 437.025 FM, 437.400 FM
PCSat 19 Apr 03:22:36 03:26:31 20° 316° (NW) 03:30:27 145.825 MHz
Uribyol 2 19 Apr 03:38:03 03:43:13 68° 102° (ESE) 03:48:22 436.500 FM
KITSAT 1 19 Apr 04:01:37 04:09:44 82° 118° (ESE) 04:17:53 435.175 FM
Gurwin Techsat 1B 19 Apr 04:07:16 04:12:13 38° 98° (E) 04:17:07 435.225 FM
AO-27 19 Apr 04:18:06 04:23:09 54° 289° (WNW) 04:28:11 436.795 MHz FM
ITAMSAT 1 19 Apr 04:29:05 04:33:59 44° 290° (WNW) 04:38:51 435.822 SSB
JAS-1B 19 Apr 04:35:37 04:40:05 23° 94° (E) 04:44:41 435.800 - 435.900 CW/SSB
Oscar 19 19 Apr 04:35:59 04:39:52 22° 296° (WNW) 04:43:45 437.125 CW, 437.150 USB
AO-Echo 19 Apr 04:41:58 04:46:22 37° 291° (WNW) 04:50:41 ?
Oscar 16 19 Apr 04:44:36 04:47:56 18° 298° (WNW) 04:51:16 437.025 USB, Beacon 2401.1428
TMSAT-1 19 Apr 04:55:36 05:00:55 77° 103° (ESE) 05:06:12 436.925 FM
OPAL 19 Apr 04:58:08 04:59:59 12° 269° (W) 05:01:51 ?
Uosat F 19 Apr 04:59:47 05:04:10 30° 96° (E) 05:08:30 435.120 FM
UOSAT-12 19 Apr 05:03:23 05:05:52 14° 252° (WSW) 05:08:20 437.025 FM, 437.400 FM
Uribyol 2 19 Apr 05:19:02 05:22:08 16° 299° (WNW) 05:25:14 436.500 FM
Gurwin Techsat 1B 19 Apr 05:47:34 05:52:00 28° 294° (WNW) 05:56:26 435.225 FM
STRAND 1 19 Apr 05:55:47 05:58:11 14° 59° (ENE) 06:00:36 ?
